TimeAEST,TemperatureF,Dew PointF,Humidity,Sea Level PressureIn,VisibilityMPH,Wind Direction,Wind SpeedMPH,Gust SpeedMPH,PrecipitationIn,Events,Conditions,WindDirDegrees,DateUTC
12:00 AM,69,66,88,29.83,12,West,4.6,,,,Partly Cloudy,280,2011-10-09 14:00:00
12:00 AM,69.8,66.2,88,29.83,6.2,West,4.6,-,N/A,,Partly Cloudy,270,2011-10-09 14:00:00
12:30 AM,68.0,66.2,94,29.83,6.2,West,4.6,-,N/A,,Scattered Clouds,280,2011-10-09 14:30:00
1:00 AM,69,66,86,29.82,,West,5.8,,,,,270,2011-10-09 15:00:00
1:00 AM,69.8,66.2,88,29.80,6.2,West,5.8,-,N/A,,Mostly Cloudy,270,2011-10-09 15:00:00
1:23 AM,69.8,66.2,88,29.80,6.2,West,5.8,-,N/A,,Mostly Cloudy,270,2011-10-09 15:23:00
1:30 AM,69.8,64.4,83,29.80,6.2,West,3.5,-,N/A,,Scattered Clouds,270,2011-10-09 15:30:00
2:00 AM,69.8,66.2,88,29.80,6.2,Calm,Calm,-,N/A,,Partly Cloudy,0,2011-10-09 16:00:00
2:30 AM,68.0,66.2,94,29.77,6.2,West,1.2,-,N/A,,Partly Cloudy,270,2011-10-09 16:30:00
3:00 AM,69,66,86,29.79,9,Calm,Calm,,,,Partly Cloudy,,2011-10-09 17:00:00
3:00 AM,68.0,66.2,94,29.77,6.2,Calm,Calm,-,N/A,,Partly Cloudy,0,2011-10-09 17:00:00
3:30 AM,68.0,66.2,94,29.77,6.2,Calm,Calm,-,N/A,,Partly Cloudy,0,2011-10-09 17:30:00
4:00 AM,68,66,92,29.80,,Calm,Calm,,,,,,2011-10-09 18:00:00
4:00 AM,68.0,66.2,94,29.77,6.2,Calm,Calm,-,N/A,,Partly Cloudy,0,2011-10-09 18:00:00
4:30 AM,68.0,66.2,94,29.80,6.2,Calm,Calm,-,N/A,,Partly Cloudy,0,2011-10-09 18:30:00
5:00 AM,68.0,66.2,94,29.80,6.2,Calm,Calm,-,N/A,,Scattered Clouds,0,2011-10-09 19:00:00
5:06 AM,66.2,66.2,100,29.80,6.2,Calm,Calm,-,N/A,,Mostly Cloudy,0,2011-10-09 19:06:00
5:30 AM,66.2,64.4,94,29.83,6.2,NNE,1.2,-,N/A,,Partly Cloudy,30,2011-10-09 19:30:00
6:00 AM,67,66,96,29.84,9,Calm,Calm,,,,Partly Cloudy,,2011-10-09 20:00:00
6:00 AM,66.2,66.2,100,29.83,6.2,Calm,Calm,-,N/A,,Partly Cloudy,0,2011-10-09 20:00:00
6:30 AM,68.0,66.2,94,29.83,6.2,Calm,Calm,-,N/A,,Partly Cloudy,0,2011-10-09 20:30:00
7:00 AM,71,69,90,29.87,,SE,1.2,,,,,140,2011-10-09 21:00:00
7:00 AM,71.6,68.0,88,29.86,6.2,SE,1.2,-,N/A,,Partly Cloudy,140,2011-10-09 21:00:00
7:30 AM,75.2,68.0,78,29.86,6.2,SE,6.9,-,N/A,,Partly Cloudy,140,2011-10-09 21:30:00
8:00 AM,78.8,68.0,69,29.89,6.2,SE,6.9,-,N/A,,Partly Cloudy,140,2011-10-09 22:00:00
8:30 AM,78.8,66.2,65,29.89,6.2,SE,6.9,-,N/A,,Partly Cloudy,130,2011-10-09 22:30:00
9:00 AM,82,66,50,29.89,9,ESE,6.9,,,,Haze,110,2011-10-09 23:00:00
9:00 AM,82.4,66.2,58,29.89,-9999.0,ESE,6.9,-,N/A,,Clear,110,2011-10-09 23:00:00
9:30 AM,86.0,66.2,51,29.89,-9999.0,ESE,6.9,-,N/A,,Clear,110,2011-10-09 23:30:00
10:00 AM,87,65,37,29.88,,SE,8.1,,,,,130,2011-10-10 00:00:00
10:00 AM,86.0,64.4,48,29.86,-9999.0,SE,8.1,-,N/A,,Clear,130,2011-10-10 00:00:00
10:30 AM,86.0,68.0,55,29.86,-9999.0,NE,10.4,-,N/A,,Clear,50,2011-10-10 00:30:00
11:00 AM,86.0,68.0,55,29.86,-9999.0,North,8.1,-,N/A,,Clear,10,2011-10-10 01:00:00
11:30 AM,84.2,68.0,58,29.86,-9999.0,North,9.2,-,N/A,,Clear,10,2011-10-10 01:30:00
12:00 PM,85,72,57,29.85,9,NNE,10.4,,,,Haze,30,2011-10-10 02:00:00
12:00 PM,84.2,71.6,66,29.83,-9999.0,NNE,10.4,-,N/A,,Clear,30,2011-10-10 02:00:00
12:30 PM,84.2,71.6,66,29.83,6.2,NNE,12.7,-,N/A,,Partly Cloudy,30,2011-10-10 02:30:00
1:00 PM,84,72,61,29.83,,North,12.7,,,,,10,2011-10-10 03:00:00
1:00 PM,84.2,73.4,70,29.80,6.2,North,12.7,-,N/A,,Partly Cloudy,10,2011-10-10 03:00:00
1:30 PM,84.2,73.4,70,29.80,6.2,NNE,10.4,-,N/A,,Scattered Clouds,20,2011-10-10 03:30:00
2:00 PM,84.2,71.6,66,29.77,6.2,North,10.4,-,N/A,,Partly Cloudy,360,2011-10-10 04:00:00
2:30 PM,84.2,71.6,66,29.77,6.2,North,11.5,-,N/A,,Partly Cloudy,10,2011-10-10 04:30:00
3:00 PM,83,73,64,29.76,9,North,15.0,,,,Haze,10,2011-10-10 05:00:00
3:00 PM,84.2,73.4,70,29.74,6.2,North,15.0,-,N/A,,Partly Cloudy,10,2011-10-10 05:00:00
3:30 PM,82.4,73.4,74,29.74,6.2,North,15.0,-,N/A,,Partly Cloudy,10,2011-10-10 05:30:00
4:00 PM,82,74,69,29.77,,North,12.7,,,,,350,2011-10-10 06:00:00
4:00 PM,82.4,73.4,74,29.77,6.2,North,12.7,-,N/A,,Partly Cloudy,350,2011-10-10 06:00:00
4:30 PM,80.6,75.2,84,29.77,6.2,North,12.7,-,N/A,,Partly Cloudy,360,2011-10-10 06:30:00
5:00 PM,80.6,73.4,79,29.77,6.2,North,11.5,-,N/A,,Partly Cloudy,350,2011-10-10 07:00:00
5:30 PM,80.6,73.4,79,29.77,6.2,North,9.2,-,N/A,,Scattered Clouds,350,2011-10-10 07:30:00
6:00 PM,78.8,73.4,83,29.77,6.2,North,9.2,-,N/A,,Scattered Clouds,350,2011-10-10 08:00:00
6:30 PM,78.8,73.4,83,29.80,6.2,NNW,6.9,-,N/A,,Scattered Clouds,340,2011-10-10 08:30:00
7:00 PM,77,73,83,29.82,,NNW,5.8,,,,,330,2011-10-10 09:00:00
7:00 PM,77.0,73.4,89,29.80,6.2,NNW,5.8,-,N/A,,Partly Cloudy,330,2011-10-10 09:00:00
7:30 PM,77.0,73.4,89,29.80,6.2,NW,4.6,-,N/A,,Partly Cloudy,310,2011-10-10 09:30:00
8:00 PM,77.0,71.6,83,29.80,6.2,NNW,4.6,-,N/A,,Partly Cloudy,330,2011-10-10 10:00:00
8:30 PM,77.0,71.6,83,29.83,6.2,West,4.6,-,N/A,,Partly Cloudy,280,2011-10-10 10:30:00
9:00 PM,76,72,84,29.84,9,NW,4.6,,,,Haze,320,2011-10-10 11:00:00
9:00 PM,77.0,71.6,83,29.83,6.2,NW,4.6,-,N/A,,Mostly Cloudy,320,2011-10-10 11:00:00
9:30 PM,77.0,71.6,83,29.83,6.2,WNW,4.6,-,N/A,,Mostly Cloudy,290,2011-10-10 11:30:00
10:00 PM,77.0,73.4,89,29.86,6.2,NW,4.6,-,N/A,,Mostly Cloudy,310,2011-10-10 12:00:00
10:30 PM,77.0,73.4,89,29.83,6.2,Calm,Calm,-,N/A,,Mostly Cloudy,0,2011-10-10 12:30:00
11:00 PM,73.4,71.6,94,29.86,6.2,NNW,1.2,-,N/A,,Mostly Cloudy,340,2011-10-10 13:00:00
11:30 PM,75.2,71.6,89,29.83,6.2,West,4.6,-,N/A,,Mostly Cloudy,280,2011-10-10 13:30:00